[[{"header":{"parameterUnit":"m.s-1","parameterCategory":1,"la1":30.2991,"la2":30.254,"lo1":-89.0895,"lo2":-89.0444,"dy":0.0017,"dx":0.0017,"nx":28,"ny":28,"refTime":"2024-07-02T21:00:00:Z","depth":0,"parameterNumber":2,"parameterNumberName":"U-component_of_WINDS"},"data":[0,0,0,0,0,0,0,0,0,0,0,0,0,0,0,0,0,0,0,0,0,0,0,0,0,0,0,0,0,0,0,0,0,0,0,0,0,0,0,0,0,0,0,0,0,0,0,0,0,0,0,0,0,0,0,0,0,0,0.4366,0.4367,0,0.446,0.4461,0.4463,0.449,0.449,0.4489,0.4489,0.4586,0.4589,0.4592,0,0,0,0,0,0,0,0,0,0,0,0,0,0.4209,0.4211,0.4366,0.4367,0.4368,0.446,0.4462,0.4463,0.449,0.449,0.4489,0.4488,0.4585,0.4589,0.4592,0,0,0,0,0,0,0,0,0,0,0,0,0,0.4287,0.4212,0.4366,0.4393,0.4396,0.446,0.4462,0.4463,0.449,0.449,0.4489,0.4488,0.4584,0.4588,0.4593,0.4636,0,0,0.4607,0.4609,0,0,0,0,0,0,0,0,0.4283,0.4293,0.4388,0.4391,0.4395,0.4463,0.4442,0.4521,0.4491,0.4455,0.4489,0.4488,0.4546,0.4553,0.4573,0.4641,0.4645,0.4607,0.461,0.4612,0.4613,0,0,0,0,0,0,0,0.4277,0.4289,0.4403,0.4389,0.4394,0.44,0.4411,0.4457,0.4503,0.4458,0.446,0.4471,0.4548,0.4568,0.4575,0.4646,0.4607,0.4611,0.4614,0.4616,0.4753,0.4754,0,0,0,0,0,0,0.4267,0.4285,0.44,0.4406,0.4336,0.4404,0.4415,0.4442,0.4503,0.4511,0.4471,0.4472,0.4561,0.457,0.4579,0.4633,0.4612,0.4616,0.4619,0.4752,0.4753,0.4754,0,0,0,0,0,0,0.4264,0.4277,0.4396,0.4346,0.4362,0.4407,0.4437,0.4444,0.4465,0.4513,0.4521,0.4484,0.4561,0.4572,0.4621,0.4636,0.4618,0.4623,0.4751,0.4753,0.4754,0.4741,0,0,0,0,0,0,0.4259,0.4276,0.4293,0.4346,0.4364,0.4438,0.4438,0.4446,0.4473,0.4474,0.4527,0.4535,0.4561,0.4614,0.4626,0.4642,0.4626,0.475,0.4752,0.4753,0.474,0.4742,0.4743,0,0,0,0,0,0.4254,0.4286,0.4294,0.4308,0.4387,0.4438,0.4449,0.4477,0.4474,0.4491,0.4522,0.4534,0.4633,0.4619,0.4632,0.465,0.4749,0.4751,0.4753,0.474,0.4742,0.4743,0,0,0,0,0,0,0.4234,0.4294,0.4303,0.4354,0.4391,0.4443,0.4466,0.4478,0.4518,0.4517,0.4551,0.4563,0.4609,0.4635,0.4619,0.4695,0.4691,0.4696,0.4677,0.4679,0.468,0.4673,0.463,0,0,0,0,0,0.4236,0.4273,0.4323,0.4363,0.4381,0.442,0.4444,0.4462,0.4502,0.4518,0.4553,0.4591,0.463,0.4656,0.4695,0.4744,0.4756,0.4763,0.4764,0.4765,0.4769,0.4795,0.4799,0.4761,0.4761,0.4761,0,0,0.424,0.4277,0.4298,0.436,0.4391,0.4428,0.4433,0.4473,0.4501,0.4524,0.4572,0.4599,0.4644,0.4692,0.4716,0.4715,0.4782,0.4768,0.4768,0.4771,0.4798,0.4801,0.4805,0.4762,0.4762,0.4762,0,0,0.4266,0.4298,0.4334,0.4365,0.4411,0.4437,0.4445,0.4495,0.4514,0.4562,0.458,0.4614,0.4682,0.4713,0.4737,0.4773,0.4785,0.4785,0.4792,0.4818,0.4821,0.4823,0.4835,0.4839,0.4789,0.4789,0.4789,0,0.4265,0.4322,0.4351,0.439,0.4416,0.4438,0.4475,0.4503,0.456,0.4577,0.4576,0.4661,0.4693,0.4748,0.4757,0.4776,0.4786,0.4779,0.4818,0.4821,0.4824,0.4836,0.484,0.4788,0.4788,0.4788,0.4788,0,0.4318,0.4357,0.4381,0.4434,0.4463,0.4501,0.4535,0.4561,0.4576,0.4602,0.4651,0.4689,0.4736,0.4751,0.4767,0.4809,0.4807,0.4811,0.4808,0.4827,0.4838,0.4843,0.4788,0.4788,0.4788,0.4788,0,0,0.4335,0.4404,0.4412,0.4436,0.4488,0.4519,0.4556,0.4602,0.4623,0.4661,0.4693,0.4749,0.4753,0.4781,0.4801,0.4823,0.4848,0.4825,0.4826,0.4827,0.4895,0.4891,0.4896,0.4856,0.4857,0.4858,0.4891,0,0.4367,0.4436,0.4463,0.4518,0.4554,0.4575,0.4608,0.4643,0.4668,0.4702,0.4729,0.4768,0.477,0.4787,0.481,0.484,0.4862,0.4838,0.4886,0.4887,0.4874,0.4902,0.4898,0.4928,0.4896,0.4897,0.4897,0,0.4414,0.4452,0.4511,0.4557,0.4573,0.4602,0.4645,0.4678,0.4718,0.4734,0.4764,0.4782,0.4822,0.4816,0.4872,0.4855,0.4876,0.4893,0.4895,0.49,0.4893,0.4908,0.4938,0.4942,0.4905,0.4904,0.4904,0,0.442,0.4486,0.4529,0.4549,0.4605,0.4624,0.4648,0.4688,0.4713,0.475,0.4767,0.4809,0.4832,0.4863,0.4892,0.4885,0.4944,0.4941,0.4958,0.4958,0.497,0.4969,0.5003,0.4984,0.4984,0.4984,0.4984,0,0.4453,0.4488,0.4532,0.4559,0.4598,0.4628,0.4666,0.4692,0.4726,0.4758,0.4779,0.4808,0.4844,0.4878,0.4901,0.4942,0.4953,0.4967,0.4972,0.4965,0.4963,0.4979,0.4977,0.4985,0.4985,0.4984,0.4984,0,0.4466,0.4497,0.4546,0.4594,0.4607,0.4633,0.4675,0.4701,0.4726,0.4766,0.4777,0.4816,0.4857,0.4888,0.4942,0.4957,0.5,0.5007,0.4987,0.4989,0.5005,0.5002,0.505,0.5058,0.5034,0.5034,0.5034,0,0.4485,0.4512,0.4563,0.4585,0.4609,0.4645,0.467,0.4701,0.4726,0.4773,0.4794,0.4836,0.4871,0.4935,0.4968,0.5008,0.5016,0.5029,0.5022,0.5013,0.5015,0.5013,0.5015,0.503,0.503,0.5031,0.5031,0,0.4514,0.4528,0.4564,0.4605,0.4634,0.4668,0.4702,0.4719,0.4756,0.4783,0.4825,0.4852,0.4905,0.4947,0.499,0.5015,0.5029,0.5033,0.5039,0.5031,0.5018,0.5025,0.4989,0.5032,0.5031,0.5031,0.5031,0.5031,0.4531,0.4555,0.4594,0.4633,0.4662,0.4693,0.472,0.4747,0.4783,0.4828,0.4844,0.4886,0.4925,0.4985,0.5009,0.5043,0.5044,0.5053,0.5055,0.5056,0.5055,0.5013,0.5051,0.5051,0.5051,0.5051,0.5051,0,0.4561,0.4587,0.4622,0.4669,0.4699,0.4708,0.4746,0.4771,0.4808,0.4842,0.4876,0.4923,0.4963,0.4999,0.504,0.506,0.5067,0.507,0.5068,0.5074,0.5053,0.5043,0.5063,0.5063,0.5063,0.5063,0.5063,0.5063,0.458,0.4622,0.464,0.4696,0.4722,0.4763,0.4784,0.4812,0.484,0.4891,0.4924,0.4947,0.4982,0.5025,0.5062,0.5071,0.5085,0.5086,0.5097,0.5077,0.5075,0.5074,0.5065,0.5089,0.5089,0.5115,0.5116,0.5116]},{"header":{"parameterUnit":"m.s-1","parameterCategory":1,"la1":30.2991,"la2":30.254,"lo1":-89.0895,"lo2":-89.0444,"dy":0.0017,"dx":0.0017,"nx":28,"ny":28,"refTime":"2024-07-02T21:00:00:Z","depth":0,"parameterNumber":3,"parameterNumberName":"V-component_of_WINDS"},"data":[0,0,0,0,0,0,0,0,0,0,0,0,0,0,0,0,0,0,0,0,0,0,0,0,0,0,0,0,0,0,0,0,0,0,0,0,0,0,0,0,0,0,0,0,0,0,0,0,0,0,0,0,0,0,0,0,0,0,3.8979,3.8979,0,3.8989,3.899,3.899,3.8922,3.892,3.8918,3.8917,3.8925,3.8927,3.8929,0,0,0,0,0,0,0,0,0,0,0,0,0,3.89,3.8901,3.8979,3.8979,3.898,3.8989,3.899,3.899,3.8923,3.892,3.8918,3.8916,3.8925,3.8927,3.8929,0,0,0,0,0,0,0,0,0,0,0,0,0,3.8924,3.8902,3.8979,3.8947,3.8945,3.8989,3.899,3.899,3.8923,3.892,3.8917,3.8915,3.8924,3.8927,3.893,3.9005,0,0,3.8939,3.894,0,0,0,0,0,0,0,0,3.8923,3.8927,3.8952,3.895,3.8947,3.8952,3.8964,3.8995,3.8924,3.8931,3.8917,3.8913,3.8936,3.8938,3.8946,3.9006,3.9006,3.8939,3.8941,3.8942,3.8943,0,0,0,0,0,0,0,3.8921,3.8927,3.8983,3.8952,3.8949,3.8932,3.8932,3.897,3.895,3.893,3.8925,3.8928,3.8934,3.8943,3.8946,3.9006,3.8939,3.8942,3.8944,3.8945,3.9126,3.9129,0,0,0,0,0,0,3.8924,3.8926,3.8983,3.8984,3.8928,3.8935,3.8936,3.8953,3.8949,3.8946,3.893,3.8924,3.894,3.8942,3.8946,3.9032,3.8942,3.8945,3.8947,3.9123,3.9127,3.913,0,0,0,0,0,0,3.8923,3.893,3.8982,3.8953,3.8959,3.894,3.896,3.8955,3.8964,3.8949,3.8945,3.8943,3.8938,3.8942,3.8991,3.9032,3.8946,3.8949,3.912,3.9124,3.9129,3.9207,0,0,0,0,0,0,3.8921,3.893,3.8959,3.8954,3.896,3.9028,3.8962,3.8957,3.8969,3.8962,3.896,3.8957,3.8936,3.8987,3.8994,3.9034,3.8952,3.9116,3.9122,3.9127,3.9201,3.9214,3.9225,0,0,0,0,0,3.8918,3.8981,3.8961,3.8968,3.8997,3.9031,3.9034,3.9008,3.8973,3.9001,3.8992,3.8957,3.9027,3.8992,3.9,3.9042,3.9113,3.912,3.9127,3.9196,3.9212,3.9225,0,0,0,0,0,0,3.899,3.898,3.8957,3.9021,3.9027,3.9019,3.9054,3.9026,3.9043,3.9035,3.9003,3.9003,3.9057,3.9054,3.9016,3.9114,3.9063,3.9072,3.9113,3.9128,3.914,3.9139,3.8954,0,0,0,0,0,3.9014,3.9043,3.9032,3.9089,3.9093,3.9074,3.9087,3.9067,3.9072,3.9074,3.9068,3.9074,3.9097,3.9113,3.9133,3.9201,3.9199,3.9234,3.9246,3.9256,3.9263,3.9297,3.9312,3.9152,3.9152,3.9152,0,0,3.9062,3.906,3.908,3.9103,3.9106,3.9136,3.9076,3.9111,3.9132,3.908,3.9125,3.9121,3.9125,3.9183,3.9209,3.9183,3.9307,3.9264,3.9273,3.9274,3.9306,3.9321,3.9334,3.9157,3.9156,3.9156,0,0,3.9165,3.9167,3.9214,3.9218,3.9223,3.9209,3.922,3.9217,3.9212,3.9257,3.9218,3.9243,3.9284,3.9288,3.9295,3.94,3.9368,3.9407,3.947,3.9503,3.9516,3.9527,3.9563,3.9576,3.9415,3.9415,3.9415,0,3.9224,3.9269,3.9241,3.9278,3.9289,3.9243,3.9289,3.9294,3.9305,3.9313,3.9285,3.9334,3.9334,3.9391,3.9417,3.9425,3.9436,3.9406,3.9517,3.9527,3.9537,3.9571,3.9584,3.942,3.9419,3.9419,3.9418,0,3.934,3.9372,3.9409,3.9421,3.9435,3.9477,3.9455,3.9473,3.9452,3.9441,3.9487,3.9485,3.9504,3.9517,3.9496,3.9571,3.9555,3.9522,3.947,3.9557,3.9588,3.9601,3.9426,3.9425,3.9423,3.9422,0,0,3.9489,3.9485,3.9499,3.9503,3.9504,3.9528,3.9567,3.9585,3.9601,3.961,3.9641,3.9676,3.9646,3.9654,3.9634,3.9664,3.9744,3.9627,3.9626,3.9647,3.9825,3.9849,3.9864,3.9724,3.9726,3.9728,3.9824,0,3.9588,3.9654,3.9631,3.9698,3.9726,3.9683,3.9716,3.9721,3.9712,3.9733,3.9723,3.9748,3.9706,3.9711,3.9739,3.9729,3.9779,3.9722,3.9751,3.9752,3.975,3.9881,3.9906,3.9997,3.9836,3.9839,3.984,0,3.9712,3.9726,3.9797,3.9793,3.9803,3.9834,3.9848,3.987,3.9874,3.9865,3.9875,3.9848,3.9885,3.9834,3.9884,3.9845,3.9856,3.9853,3.9856,3.9856,3.98,3.9883,4.0025,4.0038,3.9859,3.9858,3.9856,0,3.9811,3.9848,3.9894,3.99,3.9896,3.9919,3.9918,3.9919,3.9932,3.9944,3.9951,3.9969,3.9977,3.9991,3.9969,3.9935,4.0021,3.997,4.0014,4.0015,4.0033,4.0032,4.0177,4.0043,4.0043,4.0042,4.0042,0,3.9923,3.9968,3.9938,3.9967,4.0015,3.9987,4.0035,4.003,4.0031,4.0057,4.0021,4.0046,4.0017,4.0039,4.0022,4.0065,4.0069,4.0063,4.0057,4.0065,4.0066,4.007,4.0063,4.0046,4.0045,4.0045,4.0044,0,4.0041,4.0024,4.0071,4.0064,4.0064,4.0099,4.0093,4.0118,4.0107,4.014,4.0146,4.0128,4.0152,4.0132,4.0156,4.0144,4.0201,4.0187,4.0199,4.0195,4.024,4.0235,4.0392,4.0411,4.0266,4.0268,4.0269,0,4.0113,4.0146,4.0143,4.0158,4.016,4.0185,4.0197,4.0171,4.0185,4.0191,4.0215,4.0237,4.0252,4.0292,4.0281,4.0298,4.0284,4.0337,4.0286,4.0292,4.0282,4.028,4.0283,4.0347,4.0349,4.035,4.0352,0,4.0243,4.0232,4.0251,4.0268,4.0283,4.0295,4.0303,4.0317,4.029,4.0308,4.0332,4.0344,4.0368,4.0388,4.0402,4.0401,4.0372,4.0368,4.0379,4.0386,4.0391,4.0388,4.0226,4.0364,4.0363,4.0362,4.0361,4.0361,4.0339,4.0365,4.0367,4.0389,4.0393,4.0401,4.0424,4.0416,4.0436,4.0453,4.0436,4.0465,4.0467,4.0482,4.0485,4.0506,4.0484,4.05,4.0504,4.0508,4.0514,4.0389,4.0509,4.0509,4.0508,4.0508,4.0508,0,4.0464,4.0463,4.0484,4.0497,4.0514,4.0486,4.0493,4.051,4.0535,4.054,4.0556,4.0583,4.0603,4.0593,4.061,4.063,4.0616,4.0635,4.0632,4.0632,4.0534,4.0522,4.0645,4.0645,4.0645,4.0645,4.0645,4.0645,4.0532,4.0575,4.0565,4.0609,4.0607,4.0635,4.0642,4.0649,4.0652,4.0684,4.0701,4.0695,4.0693,4.071,4.0727,4.0723,4.073,4.0753,4.0745,4.0653,4.0639,4.0626,4.0615,4.0756,4.0756,4.0841,4.0842,4.0843]}]]